Wautoma, WI

8:48 AM CST on February 19, 2017 (GMT -0600)
Wautoma

Weather History for KY50 - November, 2012

Change the Weather History Date:

Monday, November 5, 2012

  Actual Average (KPCZ) Record (KPCZ)
Temperature  
Mean Temperature 30 °F -  
Max Temperature 41 °F 48 °F 72 °F (1975)
Min Temperature 18 °F 29 °F 1 °F (1951)
Degree Days  
Heating Degree Days 36    
Moisture  
Dew Point 22 °F    
Average Humidity 80    
Maximum Humidity 96    
Minimum Humidity 53    
Precipitation  
Precipitation 0.00 in - - ()
Sea Level Pressure  
Sea Level Pressure 30.22 in    
Wind  
Wind Speed 0 mph (East)    
Max Wind Speed 6 mph    
Max Gust Speed -    
Visibility 9 miles    
Events      
Averages and records for this station are not official NWS values.
T = Trace of Precipitation, MM = Missing Value Source: NWS Daily Summary

Daily Weather History Graph

Daily Weather History Graph

Search for Another Location

Airport or City:

Trip Planner

Search our weather history database for the weather conditions in past years. The results will help you decide how hot, cold, wet, or windy it might be!

Date:

Astronomy

Nov. 05, 2012 Rise Set
Actual Time 6:39 AM CST 4:41 PM CST
Civil Twilight 6:09 AM CST 5:11 PM CST
Nautical Twilight 5:34 AM CST 5:46 PM CST
Astronomical Twilight 5:01 AM CST 6:19 PM CST
Moon 10:19 PM CST (11/5) 11:59 AM CST (11/5)
Length of Visible Light 11h 02m
Length of Day
10h 01m
Waning Gibbous, 62% of the Moon is Illuminated
Nov 5
Waning Gibbous
Nov 6
Last Quarter
Nov 13
New
Nov 20
First Quarter
Nov 28
Full

Hourly Weather History & Observations

Time (CST) Temp. Windchill Dew Point Humidity Pressure Visibility Wind Dir Wind Speed Gust Speed Precip Events Conditions
12:56 AM 20.1 °F - 18.1 °F 92% 30.26 in 9.0 mi Calm Calm - N/A   Clear
1:56 AM 20.1 °F - 18.1 °F 92% 30.25 in 10.0 mi Calm Calm - N/A   Clear
2:56 AM 18.1 °F - 16.2 °F 92% 30.25 in 9.0 mi Calm Calm - N/A   Clear
3:56 AM 18.1 °F - 16.2 °F 92% 30.26 in 7.0 mi Calm Calm - N/A   Clear
4:56 AM 18.1 °F - 15.1 °F 88% 30.27 in 9.0 mi Calm Calm - N/A   Clear
5:56 AM 18.1 °F - 16.2 °F 92% 30.27 in 8.0 mi Calm Calm - N/A   Clear
6:56 AM 19.0 °F - 18.1 °F 96% 30.27 in 7.0 mi Calm Calm - N/A   Clear
7:56 AM 26.1 °F - 24.1 °F 92% 30.28 in 10.0 mi Calm Calm - N/A   Clear
8:56 AM 31.1 °F 25.4 °F 26.1 °F 82% 30.27 in 10.0 mi NE 5.8 mph - N/A   Clear
9:56 AM 34.9 °F 32.0 °F 26.1 °F 70% 30.27 in 10.0 mi NE 3.5 mph - N/A   Clear
10:56 AM 36.9 °F - 26.1 °F 65% 30.27 in 10.0 mi Calm Calm - N/A   Clear
11:56 AM 38.8 °F - 25.2 °F 58% 30.25 in 10.0 mi Calm Calm - N/A   Partly Cloudy
12:56 PM 39.9 °F - 25.2 °F 56% 30.22 in 10.0 mi Calm Calm - N/A   Partly Cloudy
1:56 PM 39.9 °F - 25.2 °F 56% 30.21 in 10.0 mi Calm Calm - N/A   Scattered Clouds
2:56 PM 41.0 °F - 25.2 °F 53% 30.19 in 10.0 mi Calm Calm - N/A   Partly Cloudy
3:56 PM 39.9 °F 37.8 °F 26.1 °F 58% 30.19 in 10.0 mi SSE 3.5 mph - N/A   Scattered Clouds
4:56 PM 36.0 °F - 26.1 °F 67% 30.19 in 10.0 mi Calm Calm - N/A   Clear
5:56 PM 29.1 °F - 24.1 °F 81% 30.20 in 10.0 mi Calm Calm - N/A   Clear
6:56 PM 26.1 °F - 22.1 °F 85% 30.19 in 10.0 mi Calm Calm - N/A   Clear
7:56 PM 24.1 °F - 22.1 °F 92% 30.17 in 10.0 mi Calm Calm - N/A   Clear
8:56 PM 22.1 °F - 20.1 °F 92% 30.17 in 9.0 mi Calm Calm - N/A   Clear
9:56 PM 21.0 °F - 20.1 °F 96% 30.15 in 8.0 mi Calm Calm - N/A   Clear
10:56 PM 21.0 °F - 19.0 °F 92% 30.12 in 8.0 mi Calm Calm - N/A   Clear
11:56 PM 21.0 °F - 19.0 °F 92% 30.12 in 8.0 mi Calm Calm - N/A   Partly Cloudy